Location: Lake Almanor
(40.2485°N, 121.1442°W)
Time: 16:16:34
(UTC-08:00)

STARLINK-1070 - Pass Details

Date: 28 January 2020
Orbit: 349 x 351 km, 53.0° (Epoch: 17 February)

Event Time Altitude Azimuth Distance (km) Brightness Sun altitude
Rises 18:15:25 0° 320° (NW) 2,174 7.0 -11.2°
Reaches altitude 10° 18:18:15 10° 350° (N) 1,329 5.5 -11.7°
Maximum altitude 18:19:45 13° 21° (NNE) 1,168 5.0 -12.0°
Enters shadow 18:20:07 13° 29° (NNE) 1,179 4.9 -12.1°
